User: anonymous   Login
Location: Mentone
(34.5413°N, 85.5351°W)
Time: 15:33:17
(UTC-05:00)
Language:

SL-8 R/B - Orbit

View from above orbital plane
View from above orbital plane
View from above satellite
View from above satellite

Ground track
Ground track

The orbit data is extracted from the following two-line orbital elements,

1 33066U 08031G   18114.21996274 -.00000136  00000-0  10103-4 0  9995
2 33066  48.4432  95.4645 0007882 346.0621  86.9398 14.69602316528506
Epoch (UTC): 24 April 2018 05:16:44
Eccentricity: 0.0007882
inclination: 48.4432°
perigee height: 657 km
apogee height: 668 km
right ascension of ascending node: 95.4645°
argument of perigee: 346.0621°
revolutions per day: 14.69602316
mean anomaly at epoch: 86.9398°
orbit number at epoch: 52850

The dashed part of the orbit path shows where the satellite is in the earth's shadow,  

DLR